EW8744 Weather Reports


Display with metric or nautical units.
time (UTC)temp
F
wind
direction
speed
MPH
gust
MPH
rain 1hr
in
rain 24hr
in
rain mn
in
humidity
%
barometer
mb
20260906223220 97 0 4.0 11.0 0.00 0.00 0.00 40 1009.5
20260906222719 97 0 3.0 8.0 0.00 0.00 0.00 40 1009.6
20260906222219 97 0 3.0 8.0 0.00 0.00 0.00 40 1009.6
20260906221940 97 0 4.0 10.0 0.00 0.00 0.00 40 1009.8
20260906221220 97 0 3.0 10.0 0.00 0.00 0.00 39 1009.8
20260906220718 98 0 4.0 12.0 0.00 0.00 0.00 38 1009.8
20260906220219 99 0 5.0 12.0 0.00 0.00 0.00 38 1009.8
20260906215720 99 0 4.0 12.0 0.00 0.00 0.00 38 1009.8
20260906215220 99 0 2.0 11.0 0.00 0.00 0.00 38 1009.8
20260906214719 100 0 3.0 8.0 0.00 0.00 0.00 37 1009.9
20260906214219 100 0 2.0 8.0 0.00 0.00 0.00 36 1009.9
20260906213719 100 0 1.0 8.0 0.00 0.00 0.00 37 1009.9
20260906213218 99 0 3.0 9.0 0.00 0.00 0.00 37 1009.9
20260906212719 99 0 5.0 13.0 0.00 0.00 0.00 37 1010.0
20260906212218 99 0 4.0 13.0 0.00 0.00 0.00 37 1010.1
20260906211719 98 0 3.0 10.0 0.00 0.00 0.00 38 1010.1
20260906211218 98 0 3.0 8.0 0.00 0.00 0.00 38 1010.1
20260906210926 97 0 3.0 8.0 0.00 0.00 0.00 39 1010.3
20260906210816 98 0 3.0 8.0 0.00 0.00 0.00 38 1010.3
20260906205716 97 0 3.0 9.0 0.00 0.00 0.00 39 1010.5
20260906205217 97 0 3.0 10.0 0.00 0.00 0.00 39 1010.5
20260906204718 98 0 3.0 10.0 0.00 0.00 0.00 39 1010.5
20260906204217 97 0 3.0 13.0 0.00 0.00 0.00 40 1010.6
20260906203712 98 0 4.0 13.0 0.00 0.00 0.00 39 1010.7
20260906203424 98 0 4.0 11.0 0.00 0.00 0.00 39 1010.6
20260906202659 98 0 3.0 11.0 0.00 0.00 0.00 40 1010.6
20260906202153 98 0 2.0 8.0 0.00 0.00 0.00 40 1010.7
20260906201909 96 0 3.0 9.0 0.00 0.00 0.00 41 1010.8
20260906201359 96 0 3.0 9.0 0.00 0.00 0.00 41 1010.9
20260906200635 96 0 3.0 9.0 0.00 0.00 0.00 41 1011.0
20260906200129 97 0 3.0 9.0 0.00 0.00 0.00 41 1011.1
20260906195623 98 0 3.0 9.0 0.00 0.00 0.00 40 1011.1
20260906195116 98 0 4.0 9.0 0.00 0.00 0.00 40 1011.2
20260906194611 98 0 4.0 12.0 0.00 0.00 0.00 40 1011.3
20260906194105 99 0 3.0 12.0 0.00 0.00 0.00 39 1011.4
20260906193559 99 0 2.0 6.0 0.00 0.00 0.00 39 1011.2
20260906193053 99 0 4.0 11.0 0.00 0.00 0.00 38 1011.4
20260906192546 99 0 4.0 11.0 0.00 0.00 0.00 39 1011.4
20260906192041 99 0 4.0 11.0 0.00 0.00 0.00 39 1011.5
20260906191536 99 0 3.0 11.0 0.00 0.00 0.00 39 1011.5
20260906191029 99 0 4.0 11.0 0.00 0.00 0.00 39 1011.5
20260906190523 98 0 5.0 11.0 0.00 0.00 0.00 40 1011.7
20260906190017 98 0 3.0 11.0 0.00 0.00 0.00 40 1011.7
20260906185511 97 0 2.0 8.0 0.00 0.00 0.00 41 1011.8
20260906185005 98 0 1.0 8.0 0.00 0.00 0.00 41 1011.8
20260906184459 98 0 2.0 8.0 0.00 0.00 0.00 41 1011.9
20260906183953 98 0 3.0 11.0 0.00 0.00 0.00 42 1012.0
20260906183447 98 0 3.0 11.0 0.00 0.00 0.00 42 1011.9
20260906182941 97 0 3.0 11.0 0.00 0.00 0.00 42 1012.1
20260906182435 97 0 4.0 11.0 0.00 0.00 0.00 43 1012.2
20260906181928 97 0 4.0 11.0 0.00 0.00 0.00 42 1012.2
20260906181423 96 0 3.0 9.0 0.00 0.00 0.00 44 1012.3
20260906180917 96 0 2.0 11.0 0.00 0.00 0.00 45 1012.4
20260906180641 96 0 1.0 11.0 0.00 0.00 0.00 44 1012.4
20260906180349 97 0 2.0 9.0 0.00 0.00 0.00 43 1012.5
20260906175359 97 0 3.0 10.0 0.00 0.00 0.00 44 1012.6
20260906174853 96 0 4.0 13.0 0.00 0.00 0.00 45 1012.6
20260906174348 96 0 3.0 13.0 0.00 0.00 0.00 45 1012.7
20260906174331 96 0 2.0 9.0 0.00 0.00 0.00 46 1012.7
20260906173339 96 0 2.0 9.0 0.00 0.00 0.00 46 1012.9
20260906172825 96 0 2.0 9.0 0.00 0.00 0.00 46 1012.9
20260906172319 96 0 2.0 8.0 0.00 0.00 0.00 46 1013.1
20260906172037 96 0 2.0 8.0 0.00 0.00 0.00 46 1013.2
20260906171307 96 0 2.0 8.0 0.00 0.00 0.00 46 1013.2
20260906170800 95 0 2.0 8.0 0.00 0.00 0.00 47 1013.3
20260906170255 95 0 3.0 9.0 0.00 0.00 0.00 48 1013.4
20260906165749 95 0 3.0 9.0 0.00 0.00 0.00 47 1013.5
20260906165242 94 0 2.0 8.0 0.00 0.00 0.00 48 1013.4
20260906164737 93 0 0.0 3.0 0.00 0.00 0.00 50 1013.5
20260906164231 92 0 1.0 4.0 0.00 0.00 0.00 51 1013.5
20260906163725 93 0 1.0 4.0 0.00 0.00 0.00 51 1013.6
20260906163445 94 0 2.0 6.0 0.00 0.00 0.00 50 1013.6
20260906162713 94 0 2.0 8.0 0.00 0.00 0.00 50 1013.5
20260906162207 93 0 1.0 5.0 0.00 0.00 0.00 52 1013.5
20260906161701 92 0 1.0 5.0 0.00 0.00 0.00 52 1013.5
20260906161155 92 0 1.0 5.0 0.00 0.00 0.00 53 1013.5
20260906160649 92 0 1.0 5.0 0.00 0.00 0.00 52 1013.5
20260906160142 93 0 0.0 4.0 0.00 0.00 0.00 51 1013.5
20260906155642 93 0 1.0 5.0 0.00 0.00 0.00 52 1013.4
20260906155131 93 0 1.0 5.0 0.00 0.00 0.00 53 1013.4
20260906154625 92 0 1.0 3.0 0.00 0.00 0.00 54 1013.4
20260906154119 92 0 1.0 6.0 0.00 0.00 0.00 54 1013.4
20260906153612 91 0 2.0 6.0 0.00 0.00 0.00 54 1013.4
20260906153325 91 0 1.0 5.0 0.00 0.00 0.00 55 1013.3
20260906152601 91 0 1.0 5.0 0.00 0.00 0.00 56 1013.4
20260906152054 90 0 1.0 5.0 0.00 0.00 0.00 57 1013.3
20260906151812 90 0 2.0 5.0 0.00 0.00 0.00 57 1013.3
20260906151043 89 0 1.0 3.0 0.00 0.00 0.00 58 1013.3
20260906150537 89 0 0.0 2.0 0.00 0.00 0.00 59 1013.2
20260906150031 88 0 0.0 2.0 0.00 0.00 0.00 59 1013.2
20260906145530 88 0 1.0 4.0 0.00 0.00 0.00 60 1013.3
20260906145019 88 0 1.0 4.0 0.00 0.00 0.00 61 1013.4
20260906144513 87 0 0.0 3.0 0.00 0.00 0.00 63 1013.3
20260906144007 87 0 0.0 3.0 0.00 0.00 0.00 64 1013.3
20260906143501 86 0 0.0 3.0 0.00 0.00 0.00 65 1013.3
20260906142955 86 0 0.0 3.0 0.00 0.00 0.00 66 1013.2
20260906142449 86 0 1.0 3.0 0.00 0.00 0.00 66 1013.3
20260906142209 85 0 1.0 2.0 0.00 0.00 0.00 68 1013.3
20260906141440 85 0 1.0 4.0 0.00 0.00 0.00 69 1013.4
20260906140940 84 0 2.0 5.0 0.00 0.00 0.00 70 1013.4
20260906140438 84 0 2.0 5.0 0.00 0.00 0.00 71 1013.4
20260906135939 83 0 2.0 4.0 0.00 0.00 0.00 73 1013.3
20260906135437 82 0 1.0 3.0 0.00 0.00 0.00 74 1013.4
20260906134939 82 0 1.0 3.0 0.00 0.00 0.00 75 1013.3
20260906134708 81 0 1.0 3.0 0.00 0.00 0.00 77 1013.3
20260906133938 80 0 1.0 3.0 0.00 0.00 0.00 78 1013.2
20260906133438 80 0 1.0 4.0 0.00 0.00 0.00 80 1013.2
20260906132937 79 0 1.0 4.0 0.00 0.00 0.00 81 1013.2
20260906132438 78 0 1.0 3.0 0.00 0.00 0.00 83 1013.1
20260906131936 77 0 0.0 2.0 0.00 0.00 0.00 85 1013.1
20260906131435 77 0 1.0 3.0 0.00 0.00 0.00 86 1012.9
20260906130933 76 0 1.0 3.0 0.00 0.00 0.00 87 1012.9
20260906130435 75 0 1.0 3.0 0.00 0.00 0.00 87 1012.9
20260906130415 75 0 6.0 2.0 0.00 0.00 0.00 88 1012.8
20260906125435 74 0.0 0.0 0.00 0.00 0.00 88 1012.7
20260906125151 74 0.0 0.0 0.00 0.00 0.00 88 1012.6
20260906124407 74 0.0 0.0 0.00 0.00 0.00 87 1012.7
20260906124131 73 0.0 0.0 0.00 0.00 0.00 86 1012.7
20260906123609 73 0.0 0.0 0.00 0.00 0.00 86 1012.6
20260906122835 73 0.0 0.0 0.00 0.00 0.00 85 1012.6
20260906122550 74 0.0 0.0 0.00 0.00 0.00 85 1012.5
20260906122004 74 0.0 0.0 0.00 0.00 0.00 85 1012.4
20260906121230 74 0.0 0.0 0.00 0.00 0.00 85 1012.3
20260906120949 74 0.0 0.0 0.00 0.00 0.00 84 1012.3
20260906120455 74 0.0 0.0 0.00 0.00 0.00 84 1012.2
20260906115721 74 0.0 0.0 0.00 0.00 0.00 84 1012.2
20260906115220 74 0.0 0.0 0.00 0.00 0.00 84 1012.1
20260906114900 74 0.0 0.0 0.00 0.00 0.00 84 1012.1
20260906114401 74 0.0 0.0 0.00 0.00 0.00 84 1012.1
20260906113629 74 0.0 0.0 0.00 0.00 0.00 83 1012.0
20260906113353 74 0.0 0.0 0.00 0.00 0.00 84 1012.0
20260906112625 74 0.0 0.0 0.00 0.00 0.00 83 1011.9
20260906112109 74 0.0 0.0 0.00 0.00 0.00 83 1011.9
20260906111526 75 0.0 0.0 0.00 0.00 0.00 82 1011.9
20260906111027 75 0.0 0.0 0.00 0.00 0.00 82 1011.9
20260906110511 75 0.0 0.0 0.00 0.00 0.00 82 1011.8
20260906105933 75 0.0 0.0 0.00 0.00 0.00 81 1011.8
20260906105428 75 0.0 0.0 0.00 0.00 0.00 81 1011.7
20260906104925 75 0.0 0.0 0.00 0.00 0.00 81 1011.7
20260906104643 76 0.0 0.0 0.00 0.00 0.00 81 1011.7
20260906103837 76 0.0 0.0 0.00 0.00 0.00 81 1011.6
20260906103334 76 0.0 0.0 0.00 0.00 0.00 81 1011.6
20260906102832 76 0.0 0.0 0.00 0.00 0.00 81 1011.5
20260906102330 76 0.0 0.0 0.00 0.00 0.00 81 1011.5
20260906102056 76 0.0 0.0 0.00 0.00 0.00 81 1011.6
20260906101322 76 0.0 0.0 0.00 0.00 0.00 81 1011.5
20260906101032 76 0.0 0.0 0.00 0.00 0.00 81 1011.5
20260906100300 76 0.0 0.0 0.00 0.00 0.00 81 1011.4
20260906095734 76 0.0 0.0 0.00 0.00 0.00 81 1011.3
20260906095452 76 0.0 0.0 0.00 0.00 0.00 81 1011.3
20260906094731 76 0.0 0.0 0.00 0.00 0.00 81 1011.3
20260906094229 76 0.0 0.0 0.00 0.00 0.00 81 1011.1
20260906093728 77 0.0 0.0 0.00 0.00 0.00 80 1011.2
20260906093229 77 0.0 0.0 0.00 0.00 0.00 80 1011.1
20260906092711 77 0.0 0.0 0.00 0.00 0.00 80 1011.0
20260906092153 77 0.0 0.0 0.00 0.00 0.00 80 1011.0
20260906091901 77 0.0 0.0 0.00 0.00 0.00 80 1011.0
20260906091118 77 0.0 0.0 0.00 0.00 0.00 79 1011.0
20260906090607 77 0.0 0.0 0.00 0.00 0.00 79 1011.1
20260906090048 77 0.0 0.0 0.00 0.00 0.00 79 1011.2
20260906085535 77 0.0 0.0 0.00 0.00 0.00 78 1011.3
20260906085028 78 0.0 0.0 0.00 0.00 0.00 78 1011.2
20260906084458 78 0.0 0.0 0.00 0.00 0.00 78 1011.3
20260906083953 78 0.0 0.0 0.00 0.00 0.00 78 1011.2
20260906083432 78 0.0 0.0 0.00 0.00 0.00 78 1011.2
20260906083144 78 0.0 0.0 0.00 0.00 0.00 77 1011.1
20260906082424 78 0.0 0.0 0.00 0.00 0.00 77 1011.1
20260906081911 78 0.0 0.0 0.00 0.00 0.00 77 1011.2
20260906081401 78 0.0 0.0 0.00 0.00 0.00 77 1011.2
20260906080841 78 0.0 0.0 0.00 0.00 0.00 77 1011.2
20260906080333 78 0.0 0.0 0.00 0.00 0.00 76 1011.3
20260906075832 78 0.0 0.0 0.00 0.00 0.00 76 1011.4
20260906075554 78 0.0 0.0 0.00 0.00 0.00 76 1011.3
20260906074829 79 0.0 0.0 0.00 0.00 0.00 75 1011.3
20260906074330 79 0.0 0.0 0.00 0.00 0.00 75 1011.2
20260906073810 79 0.0 0.0 0.00 0.00 0.00 75 1011.3
20260906073254 79 0.0 0.0 0.00 0.00 0.00 75 1011.4
20260906072744 79 0.0 0.0 0.00 0.00 0.00 74 1011.4
20260906072231 79 0.0 0.0 0.00 0.00 0.00 74 1011.5
20260906071729 79 0.0 0.0 0.00 0.00 0.00 73 1011.5
20260906071227 79 0.0 0.0 0.00 0.00 0.00 73 1011.6
20260906070726 80 0.0 0.0 0.00 0.00 0.00 73 1011.6
20260906070224 80 0.0 0.0 0.00 0.00 0.00 73 1011.7
20260906065947 80 0.0 0.0 0.00 0.00 0.00 73 1011.8
20260906065213 80 0.0 0.0 0.00 0.00 0.00 72 1011.8
20260906064630 80 0.0 0.0 0.00 0.00 0.00 72 1011.8
20260906064350 80 0.0 0.0 0.00 0.00 0.00 72 1011.8
20260906063629 80 0.0 0.0 0.00 0.00 0.00 71 1011.9
20260906063110 80 0.0 0.0 0.00 0.00 0.00 71 1012.0
20260906062606 81 0.0 0.0 0.00 0.00 0.00 71 1012.2
20260906062100 81 0.0 0.0 0.00 0.00 0.00 71 1012.2
20260906061811 81 0.0 0.0 0.00 0.00 0.00 71 1012.1
20260906061323 81 0.0 0.0 0.00 0.00 0.00 71 1012.1
20260906060536 81 0.0 0.0 0.00 0.00 0.00 70 1012.2
20260906060027 81 0.0 0.0 0.00 0.00 0.00 70 1012.1
20260906055509 81 0.0 0.0 0.00 0.00 0.00 70 1012.2
20260906055003 81 0.0 0.0 0.00 0.00 0.00 70 1012.2
20260906054452 81 0.0 0.0 0.00 0.00 0.00 70 1012.2
20260906053933 81 0.0 0.0 0.00 0.00 0.00 69 1012.1
20260906053920 81 0.0 0.0 0.00 0.00 0.00 69 1012.2
20260906052930 82 0.0 0.0 0.00 0.00 0.00 69 1012.2
20260906052420 82 0.0 0.0 0.00 0.00 0.00 68 1012.1
20260906051908 82 0.0 0.0 0.00 0.00 0.00 68 1012.0
20260906051346 82 0.0 0.0 0.00 0.00 0.00 68 1011.9
20260906050831 82 0.0 0.0 0.00 0.00 0.00 67 1011.9
20260906050330 82 0.0 0.0 0.00 0.00 0.00 67 1011.9
20260906045818 83 0.0 0.0 0.00 0.00 0.00 67 1012.0
20260906045230 83 0.0 0.0 0.00 0.00 0.00 67 1012.0
20260906044708 83 0.0 0.0 0.00 0.00 0.00 66 1012.1
20260906044205 83 0.0 0.0 0.00 0.00 0.00 66 1012.0
20260906043901 83 0.0 0.0 0.00 0.00 0.00 66 1012.1
20260906043136 83 0.0 0.0 0.00 0.00 0.00 66 1012.0
20260906042629 83 0.0 0.0 0.00 0.00 0.00 66 1012.0
20260906042130 83 0.0 0.0 0.00 0.00 0.00 65 1012.0
20260906041615 83 0.0 0.0 0.00 0.00 0.00 65 1012.0
20260906041110 84 0.0 0.0 0.00 0.00 0.00 65 1012.0
20260906040550 84 0.0 0.0 0.00 0.00 0.00 64 1012.0
20260906040035 84 0.0 0.0 0.00 0.00 0.00 64 1012.0
20260906035537 84 0.0 0.0 0.00 0.00 0.00 64 1012.0
20260906035029 84 0.0 0.0 0.00 0.00 0.00 63 1012.1
20260906034442 85 0.0 0.0 0.00 0.00 0.00 63 1012.1
20260906033933 85 0.0 0.0 0.00 0.00 0.00 63 1012.1
20260906033430 85 0.0 0.0 0.00 0.00 0.00 62 1012.1
20260906032915 85 0.0 0.0 0.00 0.00 0.00 62 1012.0
20260906032328 85 0.0 0.0 0.00 0.00 0.00 62 1011.9
20260906031754 85 0.0 0.0 0.00 0.00 0.00 61 1011.8
20260906031249 86 0.0 0.0 0.00 0.00 0.00 61 1011.7
20260906030734 86 0.0 0.0 0.00 0.00 0.00 61 1011.7
20260906030500 86 0.0 0.0 0.00 0.00 0.00 60 1011.7
20260906025727 86 0.0 0.0 0.00 0.00 0.00 60 1011.5
20260906025220 86 0.0 0.0 0.00 0.00 0.00 59 1011.5
20260906024937 87 0.0 0.0 0.00 0.00 0.00 59 1011.5
20260906024435 87 0.0 0.0 0.00 0.00 0.00 58 1011.4
20260906023654 87 0.0 0.0 0.00 0.00 0.00 57 1011.3
20260906023133 87 0.0 0.0 0.00 0.00 0.00 57 1011.2
20260906022612 87 0.0 0.0 0.00 0.00 0.00 57 1011.2
20260906022058 88 0.0 0.0 0.00 0.00 0.00 56 1011.1
20260906021556 88 0.0 0.0 0.00 0.00 0.00 56 1011.1
20260906021054 88 0.0 0.0 0.00 0.00 0.00 55 1011.1
20260906020754 88 0.0 0.0 0.00 0.00 0.00 55 1011.1
20260906020030 88 0.0 0.0 0.00 0.00 0.00 54 1010.9
20260906015500 89 0.0 0.0 0.00 0.00 0.00 54 1010.9
20260906014956 89 0.0 0.0 0.00 0.00 0.00 54 1010.9
20260906014446 89 0.0 0.0 0.00 0.00 0.00 53 1010.8
20260906013940 89 0.0 0.0 0.00 0.00 0.00 53 1010.7
20260906013436 89 0.0 0.0 0.00 0.00 0.00 52 1010.6
20260906012934 90 0 6.0 5.0 0.00 0.00 0.00 52 1010.5
20260906012638 90 0 6.0 12.0 0.00 0.00 0.00 51 1010.4
20260906011907 90 0 6.0 12.0 0.00 0.00 0.00 49 1010.3
20260906011635 91 0 6.0 12.0 0.00 0.00 0.00 48 1010.1
20260906011127 91 0 3.0 12.0 0.00 0.00 0.00 45 1010.1
20260906010400 92 0 1.0 3.0 0.00 0.00 0.00 43 1010.0
20260906005858 92 0 1.0 3.0 0.00 0.00 0.00 42 1009.9
20260906005357 93 0 1.0 3.0 0.00 0.00 0.00 42 1009.9
20260906004858 93 0 2.0 4.0 0.00 0.00 0.00 41 1010.0
20260906004358 93 0 2.0 5.0 0.00 0.00 0.00 41 1010.0
20260906003855 94 0 2.0 6.0 0.00 0.00 0.00 40 1009.9
20260906003355 94 0 3.0 6.0 0.00 0.00 0.00 39 1010.0
20260906003118 94 0 2.0 6.0 0.00 0.00 0.00 39 1010.0
20260906002350 95 0 2.0 6.0 0.00 0.00 0.00 39 1009.9
20260906001844 95 0 3.0 8.0 0.00 0.00 0.00 39 1009.9
20260906001337 96 0 3.0 8.0 0.00 0.00 0.00 38 1009.8
20260906000834 96 0 3.0 6.0 0.00 0.00 0.00 39 1009.8
20260906000335 96 0 3.0 8.0 0.00 0.00 0.00 39 1009.8
20260905235835 96 0 3.0 8.0 0.00 0.00 0.00 39 1009.7
20260905235335 96 0 4.0 10.0 0.00 0.00 0.00 39 1009.7
20260905234835 96 0 4.0 10.0 0.00 0.00 0.00 39 1009.7
20260905234600 96 0 3.0 11.0 0.00 0.00 0.00 39 1009.7
20260905233835 96 0 3.0 11.0 0.00 0.00 0.00 39 1009.7
20260905233336 96 0 3.0 8.0 0.00 0.00 0.00 38 1009.7
20260905232835 97 0 3.0 6.0 0.00 0.00 0.00 38 1009.7
20260905232336 97 0 3.0 8.0 0.00 0.00 0.00 38 1009.7
20260905231836 97 0 4.0 10.0 0.00 0.00 0.00 38 1009.7
20260905231330 97 0 4.0 11.0 0.00 0.00 0.00 38 1009.7
20260905230830 98 0 4.0 11.0 0.00 0.00 0.00 37 1009.7
20260905230332 98 0 4.0 12.0 0.00 0.00 0.00 37 1009.7
20260905225831 98 0 4.0 13.0 0.00 0.00 0.00 37 1009.7
20260905225332 98 0 5.0 13.0 0.00 0.00 0.00 37 1009.6
20260905224830 99 0 3.0 12.0 0.00 0.00 0.00 37 1009.5
20260905224557 98 0 2.0 8.0 0.00 0.00 0.00 38 1009.6
20260905224313 97 0 2.0 5.0 0.00 0.00 0.00 38 1009.5